GEFSNE_500_meanwind_246.txt.gz
Wind_Speed
14 14 14 13 12 12 12 12 12 12 12 11 11 10 10 10 10 10 10 10 10 9 9 10 10 10 10 10 10 10 10 10 10 11 11 12 12 12
15 15 14 14 14 13 13 12 12 12 12 12 12 11 11 10 10 10 9 10 10 10 10 10 11 11 10 11 11 11 11 11 11 12 12 12 12 12
16 15 15 15 15 14 14 14 13 13 12 13 13 12 12 11 11 11 10 10 10 10 10 11 11 12 12 12 12 12 11 12 12 12 13 13 13 13
16 16 15 15 15 15 16 15 15 14 14 14 13 13 12 12 12 12 12 11 11 11 11 12 12 12 13 13 13 13 13 13 13 14 14 14 14 13
17 16 16 16 16 16 16 16 16 15 15 14 13 13 13 13 13 13 13 13 13 13 13 13 13 13 13 14 14 14 14 14 14 15 15 15 14 14
18 18 17 17 17 17 17 17 16 15 15 15 15 14 14 13 14 14 14 14 14 14 14 14 14 14 14 14 14 14 15 15 15 15 15 15 15 15
20 19 19 18 17 17 17 18 17 17 16 16 16 15 15 15 15 15 15 15 15 15 15 15 15 14 14 14 15 15 16 15 15 15 15 15 15 15
21 21 21 20 20 19 19 19 19 18 17 17 17 17 16 16 16 16 16 16 17 17 17 16 16 15 15 15 15 16 16 16 15 15 15 15 15 15
23 23 23 22 22 21 21 20 20 20 19 19 19 18 18 18 17 17 18 18 18 18 18 18 17 17 17 16 16 16 16 16 15 15 15 15 15 15
24 25 24 24 24 23 22 22 21 21 21 20 20 20 20 20 19 19 19 19 19 19 19 19 18 18 18 18 17 17 17 16 17 16 16 16 16 16
26 26 26 25 25 25 24 24 23 23 23 22 22 22 21 21 21 21 20 19 19 19 19 19 19 19 19 19 19 18 18 18 18 18 17 17 17 17
27 27 27 26 25 26 26 25 25 25 24 24 23 23 23 22 21 21 21 21 20 20 19 20 20 19 19 19 19 19 19 19 19 19 19 19 18 18
28 28 28 28 27 27 27 27 27 27 26 26 25 25 24 23 23 22 22 22 22 21 21 21 20 20 20 20 20 20 20 20 20 21 20 20 19 19
29 29 30 30 29 29 29 29 29 28 28 27 27 27 26 26 25 25 24 24 24 23 22 22 22 22 21 21 21 21 21 21 21 21 21 21 20 20
31 31 31 31 30 30 30 30 30 30 30 29 29 28 27 27 27 27 26 26 26 25 25 24 24 24 23 22 22 22 23 22 22 22 22 21 21 21
33 33 33 33 32 32 32 32 31 30 30 31 31 30 29 29 28 28 27 27 27 27 27 26 25 25 24 24 24 23 23 23 24 23 23 23 23 23
34 34 34 34 34 34 34 35 34 33 32 32 32 32 31 30 30 30 29 28 28 28 28 27 26 26 26 26 25 25 25 25 25 25 24 24 24 25
35 35 35 35 35 35 36 36 36 35 35 33 33 33 32 32 31 31 30 29 28 28 28 28 28 28 27 26 26 26 26 26 26 27 26 26 25 26
36 35 35 36 35 35 36 36 35 35 35 35 34 33 33 33 32 32 31 30 30 29 29 29 29 28 28 27 27 27 27 27 27 28 28 28 27 27
35 35 35 35 35 35 35 35 35 35 35 35 35 34 34 34 33 33 32 31 31 30 30 30 30 29 29 29 28 28 28 29 29 29 29 29 28 28
35 35 36 36 35 35 35 35 35 35 35 35 35 34 33 33 33 33 32 32 31 31 31 31 31 31 30 30 30 29 29 30 30 30 30 30 30 30
34 35 35 36 36 35 35 35 35 35 35 34 35 35 34 33 33 32 32 32 32 32 31 31 31 31 31 31 31 31 31 31 31 31 31 31 31 31
32 33 34 35 35 35 35 36 36 36 35 35 35 34 34 34 33 33 32 33 33 32 32 32 32 33 33 33 32 32 32 33 33 32 32 33 33 33

GEFSNE_500_meanwind_252.txt.gz
Wind_Speed
13 12 12 12 12 12 12 12 12 11 12 12 12 12 12 12 12 12 12 11 10 10 10 11 11 10 10 11 11 12 12 13 13 13 13 13 13 12
14 13 13 13 13 13 14 13 13 13 13 13 13 13 13 13 12 12 11 11 11 11 11 11 12 12 11 12 12 12 12 13 13 13 13 12 12 12
15 14 14 14 14 14 14 14 14 13 13 13 13 14 13 13 13 12 12 11 11 12 12 12 12 12 12 12 12 12 12 13 13 13 13 12 12 12
16 16 15 15 15 14 14 14 14 14 14 13 13 13 13 12 12 12 12 13 13 12 12 12 12 13 13 13 13 13 13 13 13 13 13 13 12 12
17 17 17 17 16 16 16 15 15 15 15 15 14 14 13 13 12 13 13 13 13 13 14 13 13 14 14 14 14 14 14 14 14 14 14 13 13 13
19 18 18 17 17 17 17 16 16 16 17 16 16 15 14 14 14 14 14 14 14 15 14 15 15 15 15 16 16 15 15 15 15 15 14 14 14 14
20 20 20 19 18 18 18 18 18 17 18 17 17 16 16 15 15 15 15 16 16 15 15 15 16 16 16 16 16 16 16 16 16 15 15 15 15 15
22 22 22 21 21 20 20 20 19 19 19 19 19 18 18 17 17 17 16 17 17 16 16 16 16 16 17 17 17 17 17 16 16 16 16 15 15 15
23 23 23 23 23 23 22 22 21 21 20 20 20 20 20 19 18 18 18 18 18 17 17 17 17 17 17 17 17 17 17 16 16 16 16 15 15 14
24 24 24 24 24 24 24 24 24 24 23 23 22 22 22 21 21 20 20 20 20 19 19 19 18 18 18 18 18 17 17 17 16 16 16 15 15 14
24 25 25 26 26 26 26 26 26 26 25 24 24 24 24 23 22 22 22 22 21 21 21 20 20 19 18 19 18 18 17 17 17 17 17 16 16 16
26 26 26 27 27 28 28 27 27 27 26 26 26 25 25 24 24 23 23 22 22 22 22 21 21 21 20 20 20 20 19 19 18 18 18 18 17 17
28 27 27 28 29 29 28 28 28 28 28 27 27 27 27 26 26 25 24 24 23 23 23 23 23 22 22 21 20 20 20 20 20 20 20 20 20 19
30 29 30 30 30 30 30 30 30 30 29 28 28 28 28 28 28 27 26 26 25 25 25 24 24 24 23 22 22 22 22 22 22 22 22 21 21 21
31 30 30 31 31 31 31 31 31 31 31 30 30 30 29 29 28 28 28 28 27 27 27 26 26 26 25 24 24 23 23 22 22 23 23 22 22 22
32 32 31 32 32 32 32 32 32 32 32 31 31 30 31 31 30 30 29 29 28 28 28 28 28 27 26 26 25 24 24 23 23 23 23 23 23 23
33 33 33 33 33 33 33 33 33 33 33 33 32 32 32 31 31 31 31 30 30 29 29 29 29 29 28 27 26 26 25 25 24 24 24 24 24 24
32 33 33 33 34 34 34 34 34 33 33 33 33 33 33 32 32 32 32 31 31 30 30 30 30 29 29 28 28 28 27 26 26 26 25 25 25 25
32 32 32 33 33 34 34 34 34 34 34 34 33 33 33 32 32 32 32 32 32 32 31 31 30 30 29 28 28 29 28 27 27 27 26 26 26 26
32 33 33 33 33 33 33 34 34 34 34 34 34 34 33 32 32 32 32 32 32 32 32 32 32 31 30 30 30 29 30 29 28 28 28 27 27 27
32 32 32 32 33 33 33 34 34 34 34 34 34 33 33 33 32 32 32 32 32 32 31 32 32 32 32 32 31 30 30 30 30 30 29 29 29 29
33 33 33 32 32 33 33 33 34 34 34 34 34 34 33 33 32 32 32 33 33 33 33 32 33 33 33 32 31 31 31 32 31 31 31 31 30 30
33 33 33 33 32 32 33 33 33 34 34 35 35 34 34 34 34 33 32 33 34 34 34 34 34 33 33 32 32 32 32 32 32 31 31 31 31 31

GEFSNE_500_meanwind_258.txt.gz
Wind_Speed
13 13 13 14 13 12 13 13 13 13 13 13 13 12 12 11 11 11 10 10 10 10 11 11 10 10 10 10 10 11 11 12 12 13 13 14 13 13
14 15 15 15 14 14 14 14 14 14 14 14 14 13 12 11 11 11 11 11 11 11 12 12 12 12 12 12 12 12 12 13 13 13 14 14 13 13
15 16 16 16 16 16 15 15 15 14 14 14 14 13 13 13 13 13 12 12 12 12 13 13 13 13 14 14 13 14 14 14 14 15 15 14 13 13
16 16 17 17 17 16 16 16 16 16 16 15 16 15 15 15 14 14 14 14 14 14 14 14 14 14 14 14 14 14 15 15 15 16 15 14 14 13
18 17 17 17 18 18 18 18 17 17 17 17 17 17 16 16 15 15 15 15 15 15 14 15 15 15 15 15 15 15 15 15 16 16 16 16 15 15
19 19 19 19 19 19 19 19 19 18 18 18 18 17 17 16 16 15 15 16 16 16 16 16 16 16 17 16 16 17 17 17 17 17 16 16 16 16
20 20 20 20 20 20 20 20 20 20 19 19 18 18 18 18 18 17 17 18 17 17 17 18 18 18 18 18 18 18 18 18 18 18 17 17 17 17
21 21 21 22 21 22 22 21 21 21 21 20 20 19 19 19 19 19 19 19 19 19 18 18 19 19 19 19 19 19 18 18 18 18 18 17 17 17
22 22 22 23 23 23 23 23 23 23 22 22 22 21 20 20 20 20 20 20 20 20 20 21 20 20 20 20 19 19 19 19 18 18 18 17 17 17
24 24 24 24 24 25 24 24 24 24 24 24 23 23 22 22 22 22 22 22 22 22 22 21 21 21 21 20 20 20 20 20 19 19 18 18 18 17
25 25 25 25 25 25 25 26 26 26 26 26 25 25 25 25 25 24 24 23 23 23 23 22 22 22 22 22 22 22 21 21 20 20 19 19 19 18
26 26 26 26 27 26 26 27 27 27 27 27 27 26 26 26 26 26 26 25 24 24 24 24 23 23 23 23 23 23 22 22 22 22 21 20 20 19
28 28 28 28 28 28 27 27 28 28 29 28 28 28 27 27 27 27 27 27 26 26 25 25 25 24 24 23 23 23 23 23 23 23 22 22 21 21
28 29 29 29 29 29 29 28 28 29 30 30 29 29 29 29 29 29 29 29 28 28 27 26 26 26 25 24 24 24 24 24 23 23 23 23 22 22
28 29 30 30 31 31 30 30 30 30 30 31 31 31 31 31 31 30 30 30 30 30 29 28 27 27 27 26 26 25 24 24 24 23 24 24 24 24
29 29 29 30 31 31 31 31 31 32 32 32 32 32 32 32 32 31 31 31 31 30 30 29 29 29 28 28 27 26 26 25 25 25 25 25 25 25
29 29 29 30 31 31 31 31 31 31 32 33 34 34 34 34 34 34 33 33 32 31 31 31 30 30 29 29 28 28 28 27 26 26 26 26 26 26
30 29 29 30 31 31 32 32 32 32 32 33 34 34 35 35 35 35 34 33 32 32 32 32 32 31 31 30 30 29 29 28 28 27 27 27 26 27
30 29 29 29 29 31 32 32 32 33 33 34 34 34 34 35 35 35 35 34 34 33 34 34 34 33 32 31 30 30 30 30 29 29 28 28 27 27
30 30 30 30 30 30 31 32 32 32 33 34 34 34 35 34 34 34 34 34 34 34 34 34 34 34 33 33 32 32 32 31 31 31 30 30 29 28
30 30 31 31 31 31 31 32 32 32 33 33 33 34 34 35 34 34 34 34 34 34 35 35 35 34 34 34 33 33 33 33 33 32 31 30 29 29
31 31 31 31 31 31 32 32 32 33 33 33 33 33 33 34 34 34 35 34 34 34 35 35 36 36 35 35 34 33 33 33 33 32 32 31 29 29
31 31 31 31 31 31 31 31 31 32 33 33 33 33 33 33 33 34 34 35 35 35 35 36 36 36 36 35 35 34 34 34 33 33 33 32 32 31

GEFSNE_500_meanwind_264.txt.gz
Wind_Speed
15 15 15 16 16 16 16 16 16 16 15 16 16 15 15 15 14 14 14 14 14 13 13 13 13 13 13 13 13 13 13 13 14 14 14 14 14 14
16 16 16 17 17 17 17 16 17 17 17 16 17 16 16 15 15 15 15 15 15 15 15 15 15 14 14 14 14 15 15 15 15 15 15 15 16 16
18 18 18 17 17 18 17 17 17 17 18 18 17 18 17 17 17 16 16 16 16 16 15 15 15 16 17 16 16 16 16 16 16 16 16 16 16 15
19 19 19 19 19 18 19 18 18 18 18 18 18 18 19 19 18 18 18 18 18 17 17 17 17 17 18 17 17 17 17 17 17 17 17 17 17 16
20 20 20 20 20 20 20 19 19 19 19 18 19 19 19 19 19 19 19 18 18 18 18 18 18 18 18 18 18 17 18 18 18 18 18 18 17 16
21 21 21 21 21 21 21 21 20 19 20 20 20 20 20 19 19 19 18 18 18 19 19 19 19 19 18 18 19 19 19 19 19 18 18 18 17 17
22 22 22 21 21 22 22 22 22 21 21 21 21 21 21 20 20 20 19 19 19 19 19 19 19 19 20 20 20 20 20 19 19 19 19 18 18 18
22 22 22 22 22 23 23 23 23 23 23 22 22 22 22 21 21 21 20 20 19 19 19 19 19 20 20 20 21 21 21 20 20 20 20 19 19 19
23 23 23 23 22 23 23 24 24 24 24 24 23 23 23 22 22 22 21 21 20 20 20 20 21 21 21 21 21 21 21 21 21 20 20 20 20 20
24 24 24 24 23 24 24 24 24 25 24 24 25 24 23 23 23 23 23 22 22 22 22 22 22 22 22 22 22 21 21 21 21 21 20 20 19 19
24 24 24 24 24 24 25 25 25 25 26 26 25 26 26 25 25 25 25 24 24 24 24 24 23 23 23 23 23 22 22 21 21 21 21 21 21 20
24 25 25 25 26 26 26 26 25 26 26 26 27 27 28 28 27 26 27 26 26 25 25 25 25 25 24 24 24 24 23 23 23 23 23 22 22 22
25 26 26 27 27 27 27 27 27 27 27 27 28 28 29 29 29 29 29 28 28 27 27 27 26 26 26 25 25 25 25 25 25 25 25 24 24 23
26 27 27 28 28 28 28 27 27 27 27 28 29 29 29 29 30 30 30 30 29 29 29 29 28 27 27 26 26 26 26 26 26 26 25 25 24 24
27 27 28 28 28 28 28 28 28 28 28 28 29 29 30 30 30 30 30 31 31 30 30 29 29 28 28 27 27 26 26 27 26 26 26 26 26 25
28 28 28 29 28 29 29 29 29 29 30 30 29 29 30 30 30 30 31 31 31 31 31 31 30 30 29 29 28 28 27 27 27 27 27 27 26 26
29 29 29 29 29 29 30 30 31 31 31 31 30 31 31 31 31 31 31 31 31 31 31 31 31 31 31 30 30 29 29 29 29 29 28 27 27 26
30 30 30 30 31 30 31 31 31 32 31 31 31 31 31 31 31 31 31 31 32 32 32 31 32 32 32 32 31 31 30 30 30 30 30 29 28 27
31 30 30 30 31 31 31 31 31 31 32 31 31 31 31 32 31 32 32 32 32 32 33 33 32 33 33 32 32 32 32 31 31 31 31 30 29 29
31 31 31 31 32 32 31 31 31 31 32 31 31 31 31 32 32 32 33 33 33 33 33 33 33 33 33 32 32 32 33 32 32 32 32 31 31 30
31 31 31 32 32 32 32 31 31 31 32 32 32 32 32 32 32 32 32 33 34 34 33 33 34 34 34 33 33 32 33 33 33 33 32 32 31 30
30 31 31 31 31 32 32 32 32 32 32 33 33 33 33 33 33 33 33 33 34 34 34 34 34 34 34 33 33 34 33 33 33 32 32 32 31 31
30 30 31 31 31 32 32 32 32 32 32 33 33 34 34 34 34 34 34 35 35 35 35 35 34 34 34 34 34 34 34 34 33 33 32 32 32 32

GEFSNE_500_meanwind_270.txt.gz
Wind_Speed
17 17 17 17 18 18 17 17 17 17 17 17 17 17 18 17 18 17 16 16 16 15 15 15 15 15 15 15 15 15 14 14 14 14 14 14 14 14
18 18 18 18 18 18 18 19 19 18 18 17 18 19 19 19 18 17 17 17 16 16 16 17 16 16 17 17 16 16 16 16 16 16 15 15 15 15
19 20 20 20 20 19 19 19 20 19 19 19 20 20 19 19 19 18 18 18 18 18 18 18 18 18 18 18 18 18 17 17 17 17 16 16 16 16
19 20 20 21 21 21 21 20 20 21 20 20 20 20 20 20 20 20 20 19 19 19 19 19 20 20 20 19 19 19 19 19 19 18 18 18 18 18
19 20 21 21 21 21 22 22 21 21 21 21 21 21 21 21 21 21 20 20 19 19 19 19 19 19 19 19 19 19 19 19 20 19 19 19 19 19
21 21 21 22 22 22 23 23 23 22 22 22 22 22 22 22 22 21 20 20 20 20 19 19 20 20 20 20 20 20 20 20 20 20 20 20 20 20
22 22 22 22 23 22 23 23 23 22 22 22 22 22 23 23 22 22 21 21 20 20 20 20 21 21 21 21 21 21 21 21 21 21 21 21 21 21
22 22 23 23 23 23 23 23 23 23 23 23 23 23 23 23 23 23 22 22 22 22 22 22 22 22 22 22 21 21 22 22 21 22 22 22 22 21
23 24 24 24 23 23 23 24 24 24 23 23 23 23 23 23 23 23 23 23 23 23 23 23 23 22 22 22 22 22 22 22 22 22 22 22 21 20
24 24 25 25 25 25 25 25 25 25 24 24 24 24 25 24 24 24 24 24 23 23 24 23 23 23 23 23 23 23 23 23 23 22 22 22 22 21
25 25 25 25 25 26 26 26 26 25 25 25 25 26 26 25 25 25 25 25 25 25 25 25 25 24 24 25 25 25 24 24 23 23 23 22 22 22
26 25 25 26 26 26 26 26 26 26 26 26 26 26 26 26 25 25 25 25 26 26 26 26 26 25 24 25 25 25 25 25 25 25 24 24 24 23
25 26 26 27 27 27 27 27 27 27 27 27 27 27 27 27 27 26 25 25 26 27 27 27 27 26 26 25 26 26 26 26 26 26 26 26 26 25
25 26 26 27 27 27 27 27 27 28 27 27 27 27 27 27 27 28 27 27 27 28 28 27 27 27 27 27 26 26 27 27 27 27 27 27 27 27
25 26 26 27 27 28 28 28 29 28 28 28 28 28 28 28 28 29 29 29 28 28 28 28 28 27 27 27 27 27 27 27 27 28 28 28 27 27
27 26 27 27 28 28 29 29 30 30 30 29 29 29 30 30 30 30 30 30 30 29 29 29 29 28 28 28 28 28 28 28 28 28 28 28 28 28
28 28 28 28 28 29 30 30 31 31 31 31 30 30 30 31 31 31 30 30 30 30 30 30 30 30 30 30 29 29 29 29 29 29 29 29 29 29
29 28 28 28 28 29 29 30 31 31 32 32 31 31 32 32 32 32 32 31 31 31 30 31 31 31 31 30 30 30 30 30 30 30 30 30 29 29
29 29 29 28 29 30 30 30 31 32 32 33 33 32 32 32 33 33 33 32 32 32 32 31 32 32 32 31 30 31 31 31 31 30 30 30 30 29
29 30 30 30 29 30 30 30 31 32 33 33 33 34 33 33 33 33 33 33 33 33 33 33 32 32 32 32 31 32 32 31 31 31 31 31 30 31
28 29 29 29 29 29 29 29 30 31 32 33 33 34 34 34 34 34 34 34 33 33 33 33 32 32 33 33 33 32 32 32 32 32 32 32 31 31
27 28 28 29 29 30 30 30 30 31 32 33 33 33 34 34 35 35 34 34 34 34 33 33 33 34 34 34 34 33 33 33 34 33 33 33 32 32
27 28 28 28 29 29 30 30 31 30 31 32 33 34 34 34 35 35 36 36 35 35 35 35 34 35 35 35 35 35 35 34 34 34 33 33 33 33